[[{"header":{"parameterUnit":"m.s-1","parameterCategory":1,"la1":30.2991,"la2":30.254,"lo1":-89.0895,"lo2":-89.0444,"dy":0.0017,"dx":0.0017,"nx":28,"ny":28,"refTime":"2025-06-13T03:00:00:Z","depth":0,"parameterNumber":2,"parameterNumberName":"U-component_of_WINDS"},"data":[0,0,0,0,0,0,0,0,0,0,0,0,0,0,0,0,0,0,0,0,0,0,0,0,0,0,0,0,0,0,0,0,0,0,0,0,0,0,0,0,0,0,0,0,0,0,0,0,0,0,0,0,0,0,0,0,0,0,-1.9261,-1.9262,0,-1.935,-1.9351,-1.9352,-1.9388,-1.9388,-1.9387,-1.9387,-1.9478,-1.948,-1.9483,0,0,0,0,0,0,0,0,0,0,0,0,0,-1.9123,-1.9125,-1.9261,-1.9262,-1.9264,-1.935,-1.9351,-1.9353,-1.9388,-1.9387,-1.9387,-1.9387,-1.9477,-1.948,-1.9483,0,0,0,0,0,0,0,0,0,0,0,0,0,-1.9195,-1.9126,-1.9261,-1.9292,-1.9295,-1.935,-1.9351,-1.9353,-1.9388,-1.9387,-1.9387,-1.9387,-1.9476,-1.948,-1.9484,-1.9515,0,0,-1.9496,-1.9498,0,0,0,0,0,0,0,0,-1.9191,-1.92,-1.9286,-1.929,-1.9294,-1.9358,-1.9336,-1.9407,-1.9388,-1.9353,-1.9387,-1.9387,-1.9438,-1.9445,-1.9463,-1.9519,-1.9523,-1.9496,-1.9499,-1.95,-1.9501,0,0,0,0,0,0,0,-1.9186,-1.9196,-1.9297,-1.9287,-1.9292,-1.9301,-1.9311,-1.935,-1.9396,-1.9356,-1.9358,-1.9369,-1.944,-1.9459,-1.9465,-1.9524,-1.9496,-1.95,-1.9502,-1.9504,-1.9612,-1.9613,0,0,0,0,0,0,-1.9175,-1.9192,-1.9294,-1.9299,-1.924,-1.9304,-1.9315,-1.9337,-1.9396,-1.9404,-1.9369,-1.937,-1.9452,-1.946,-1.9468,-1.9509,-1.95,-1.9504,-1.9506,-1.9612,-1.9612,-1.9613,0,0,0,0,0,0,-1.9172,-1.9184,-1.929,-1.9246,-1.926,-1.9307,-1.9332,-1.9339,-1.9358,-1.9406,-1.9414,-1.9379,-1.9452,-1.9463,-1.9503,-1.9513,-1.9506,-1.9509,-1.9611,-1.9612,-1.9612,-1.959,0,0,0,0,0,0,-1.9168,-1.9183,-1.9195,-1.9246,-1.9263,-1.9323,-1.9332,-1.9341,-1.9365,-1.9367,-1.9418,-1.9426,-1.9453,-1.9497,-1.9507,-1.9518,-1.9512,-1.961,-1.9611,-1.9612,-1.9591,-1.959,-1.959,0,0,0,0,0,-1.9163,-1.9185,-1.9195,-1.9207,-1.9278,-1.9324,-1.9333,-1.9364,-1.9365,-1.9378,-1.9409,-1.9424,-1.951,-1.9501,-1.9513,-1.9525,-1.961,-1.9611,-1.9612,-1.9591,-1.959,-1.959,0,0,0,0,0,0,-1.9133,-1.9192,-1.9204,-1.9243,-1.9278,-1.933,-1.9346,-1.9362,-1.9398,-1.9398,-1.9435,-1.9446,-1.9484,-1.9509,-1.9497,-1.9559,-1.9561,-1.9565,-1.9541,-1.9541,-1.9541,-1.9534,-1.9516,0,0,0,0,0,-1.9131,-1.9162,-1.9212,-1.9242,-1.9259,-1.9299,-1.932,-1.9341,-1.9379,-1.9394,-1.9428,-1.9464,-1.9499,-1.9522,-1.9557,-1.9595,-1.9606,-1.9609,-1.9609,-1.9608,-1.9611,-1.9633,-1.9635,-1.9617,-1.9617,-1.9617,0,0,-1.9126,-1.9163,-1.918,-1.9237,-1.9266,-1.9299,-1.9312,-1.9345,-1.9369,-1.9399,-1.9439,-1.9466,-1.9509,-1.9548,-1.9567,-1.957,-1.9619,-1.961,-1.9609,-1.9612,-1.9635,-1.9636,-1.9638,-1.9617,-1.9617,-1.9617,0,0,-1.9135,-1.9166,-1.9194,-1.9224,-1.9269,-1.9296,-1.9302,-1.9352,-1.9371,-1.9412,-1.9435,-1.9465,-1.9525,-1.9555,-1.9578,-1.9599,-1.9615,-1.961,-1.9609,-1.9631,-1.9632,-1.9633,-1.9641,-1.9644,-1.9612,-1.9612,-1.9612,0,-1.9124,-1.9174,-1.9206,-1.9239,-1.9263,-1.9292,-1.9321,-1.9349,-1.9403,-1.9419,-1.9421,-1.9498,-1.9529,-1.9576,-1.9582,-1.9599,-1.9608,-1.9604,-1.9629,-1.9631,-1.9633,-1.9641,-1.9644,-1.9611,-1.9611,-1.9612,-1.9612,0,-1.9158,-1.9192,-1.921,-1.9261,-1.9288,-1.9318,-1.9357,-1.938,-1.9399,-1.9426,-1.9468,-1.9506,-1.955,-1.9563,-1.9581,-1.9613,-1.9613,-1.9622,-1.9625,-1.9633,-1.9641,-1.9645,-1.961,-1.961,-1.9611,-1.9611,0,0,-1.9149,-1.922,-1.9226,-1.925,-1.9302,-1.9329,-1.9362,-1.9405,-1.9424,-1.9461,-1.9489,-1.954,-1.9549,-1.9575,-1.9597,-1.9616,-1.9631,-1.9623,-1.9624,-1.9623,-1.9669,-1.9662,-1.9665,-1.9642,-1.9643,-1.9644,-1.9666,0,-1.9165,-1.9224,-1.9255,-1.9301,-1.9333,-1.9362,-1.939,-1.9426,-1.9452,-1.9484,-1.9513,-1.9549,-1.9557,-1.9573,-1.9594,-1.9625,-1.9641,-1.9624,-1.9669,-1.967,-1.9657,-1.9669,-1.9662,-1.9681,-1.9669,-1.967,-1.967,0,-1.9191,-1.9228,-1.9277,-1.9326,-1.9341,-1.9366,-1.9408,-1.9438,-1.9479,-1.9497,-1.9527,-1.955,-1.9585,-1.9587,-1.9637,-1.9624,-1.9645,-1.9664,-1.9665,-1.967,-1.967,-1.9675,-1.9687,-1.969,-1.9675,-1.9675,-1.9675,0,-1.918,-1.9242,-1.9279,-1.9299,-1.9358,-1.9375,-1.94,-1.9441,-1.9465,-1.9502,-1.9519,-1.956,-1.9582,-1.9613,-1.9647,-1.9644,-1.9694,-1.9697,-1.971,-1.9709,-1.9718,-1.9717,-1.9734,-1.9732,-1.9732,-1.9732,-1.9732,0,-1.9194,-1.9223,-1.9275,-1.9298,-1.9332,-1.9368,-1.94,-1.9428,-1.9464,-1.9493,-1.9521,-1.9548,-1.959,-1.9622,-1.9649,-1.9686,-1.9696,-1.9712,-1.9719,-1.9709,-1.9707,-1.9723,-1.9722,-1.9733,-1.9732,-1.9732,-1.9732,0,-1.9187,-1.9223,-1.9266,-1.9318,-1.9332,-1.9354,-1.9399,-1.9423,-1.9452,-1.9488,-1.9499,-1.9544,-1.9583,-1.962,-1.9672,-1.969,-1.9728,-1.9737,-1.9714,-1.9718,-1.9728,-1.9727,-1.9756,-1.9761,-1.9755,-1.9755,-1.9755,0,-1.9193,-1.9216,-1.9271,-1.9293,-1.9318,-1.9352,-1.9377,-1.9414,-1.9439,-1.9489,-1.9507,-1.9548,-1.9584,-1.9646,-1.9683,-1.9724,-1.9733,-1.9741,-1.974,-1.973,-1.9733,-1.9732,-1.9734,-1.974,-1.974,-1.974,-1.974,0,-1.9201,-1.9218,-1.9253,-1.9295,-1.9324,-1.9359,-1.9394,-1.941,-1.9454,-1.9481,-1.9522,-1.9549,-1.9604,-1.9645,-1.969,-1.9717,-1.9736,-1.974,-1.9745,-1.9736,-1.9722,-1.9729,-1.9713,-1.9739,-1.9739,-1.9739,-1.9739,-1.9739,-1.9201,-1.9223,-1.9266,-1.9304,-1.9335,-1.9367,-1.9393,-1.9424,-1.9459,-1.9506,-1.9526,-1.9568,-1.961,-1.9672,-1.9699,-1.9732,-1.9736,-1.9743,-1.9745,-1.9746,-1.9744,-1.9717,-1.9741,-1.9741,-1.9741,-1.9741,-1.9741,0,-1.9211,-1.924,-1.9275,-1.9323,-1.9354,-1.937,-1.941,-1.9434,-1.9471,-1.9508,-1.9543,-1.959,-1.9631,-1.9671,-1.9714,-1.9733,-1.9743,-1.9743,-1.9742,-1.9748,-1.9738,-1.973,-1.9734,-1.9734,-1.9734,-1.9734,-1.9734,-1.9734,-1.9219,-1.9257,-1.9279,-1.9334,-1.9363,-1.9404,-1.9425,-1.9456,-1.9486,-1.9538,-1.9572,-1.9598,-1.9637,-1.9683,-1.9721,-1.9732,-1.9747,-1.9744,-1.9758,-1.9748,-1.9748,-1.9748,-1.9741,-1.9747,-1.9747,-1.9764,-1.9765,-1.9765]},{"header":{"parameterUnit":"m.s-1","parameterCategory":1,"la1":30.2991,"la2":30.254,"lo1":-89.0895,"lo2":-89.0444,"dy":0.0017,"dx":0.0017,"nx":28,"ny":28,"refTime":"2025-06-13T03:00:00:Z","depth":0,"parameterNumber":3,"parameterNumberName":"V-component_of_WINDS"},"data":[0,0,0,0,0,0,0,0,0,0,0,0,0,0,0,0,0,0,0,0,0,0,0,0,0,0,0,0,0,0,0,0,0,0,0,0,0,0,0,0,0,0,0,0,0,0,0,0,0,0,0,0,0,0,0,0,0,0,6.2307,6.2307,0,6.229,6.229,6.229,6.2202,6.22,6.2198,6.2196,6.2179,6.2181,6.2182,0,0,0,0,0,0,0,0,0,0,0,0,0,6.2265,6.2266,6.2307,6.2307,6.2307,6.229,6.229,6.229,6.2203,6.22,6.2198,6.2195,6.2179,6.2181,6.2182,0,0,0,0,0,0,0,0,0,0,0,0,0,6.2269,6.2266,6.2307,6.2261,6.2257,6.229,6.229,6.229,6.2203,6.22,6.2197,6.2194,6.2178,6.218,6.2183,6.2259,0,0,6.2189,6.219,0,0,0,0,0,0,0,0,6.2269,6.2271,6.2268,6.2264,6.226,6.2245,6.2269,6.2279,6.2204,6.2224,6.2196,6.2193,6.2204,6.2204,6.2207,6.2258,6.2257,6.219,6.2191,6.2192,6.2193,0,0,0,0,0,0,0,6.2269,6.2271,6.23,6.2268,6.2263,6.2242,6.2239,6.227,6.2231,6.2222,6.2215,6.2215,6.2201,6.2206,6.2206,6.2257,6.219,6.2192,6.2193,6.2194,6.237,6.2373,0,0,0,0,0,0,6.2275,6.2271,6.2301,6.23,6.2257,6.2245,6.2242,6.2253,6.2231,6.2224,6.2217,6.2211,6.2203,6.2204,6.2205,6.2293,6.2192,6.2194,6.2195,6.2366,6.237,6.2374,0,0,0,0,0,0,6.2274,6.2278,6.2301,6.2284,6.2285,6.2249,6.2262,6.2254,6.2259,6.2227,6.222,6.2229,6.2201,6.2202,6.2246,6.2291,6.2195,6.2197,6.2362,6.2368,6.2372,6.2468,0,0,0,0,0,0,6.2273,6.2279,6.2307,6.2285,6.2286,6.2342,6.2265,6.2256,6.2263,6.2254,6.2237,6.2231,6.2198,6.2243,6.2249,6.2292,6.2199,6.2358,6.2365,6.2371,6.2461,6.2476,6.2489,0,0,0,0,0,6.2272,6.2334,6.2308,6.2313,6.2321,6.2345,6.2346,6.2307,6.2267,6.2295,6.2275,6.2231,6.2286,6.2249,6.2254,6.2299,6.2355,6.2363,6.237,6.2454,6.2473,6.2488,0,0,0,0,0,0,6.2361,6.233,6.2302,6.2358,6.2355,6.233,6.2364,6.2328,6.2336,6.2327,6.228,6.2277,6.2327,6.2318,6.2277,6.2371,6.2313,6.2322,6.2375,6.2393,6.2406,6.2407,6.2201,0,0,0,0,0,6.2388,6.241,6.2382,6.2435,6.2435,6.24,6.2409,6.238,6.2375,6.2373,6.2356,6.2353,6.2369,6.2381,6.2394,6.246,6.2455,6.2493,6.2507,6.2519,6.2527,6.2561,6.2577,6.2399,6.2399,6.2398,0,0,6.2442,6.2428,6.2445,6.2452,6.2446,6.247,6.2399,6.2428,6.2445,6.2377,6.2417,6.2406,6.2399,6.2454,6.2477,6.2447,6.2575,6.2529,6.2538,6.2539,6.257,6.2587,6.2602,6.2404,6.2403,6.2402,0,0,6.2553,6.2545,6.2588,6.2584,6.2576,6.2553,6.2564,6.2545,6.2535,6.2574,6.2524,6.2545,6.2574,6.2571,6.2573,6.2686,6.2646,6.2692,6.2764,6.2798,6.2812,6.2824,6.2864,6.2878,6.27,6.2701,6.2701,0,6.2621,6.2655,6.2615,6.2647,6.2652,6.2592,6.2636,6.2634,6.2631,6.2636,6.2603,6.2639,6.263,6.2683,6.2711,6.2716,6.2726,6.2693,6.2813,6.2825,6.2836,6.2873,6.2888,6.2706,6.2706,6.2705,6.2704,0,6.2739,6.2764,6.28,6.2799,6.2808,6.2846,6.2812,6.2826,6.2798,6.2779,6.282,6.2808,6.2818,6.2829,6.2801,6.288,6.2861,6.2822,6.2761,6.2859,6.2893,6.2907,6.2714,6.2712,6.271,6.2709,0,0,6.2903,6.2881,6.2894,6.2893,6.2882,6.29,6.2936,6.2946,6.2959,6.296,6.2989,6.3016,6.298,6.2983,6.2954,6.2984,6.3074,6.2941,6.294,6.2965,6.3159,6.3187,6.3204,6.3048,6.3051,6.3053,6.3159,0,6.3008,6.3067,6.3032,6.3096,6.3119,6.3065,6.3096,6.3092,6.3076,6.3093,6.3076,6.3095,6.3046,6.3048,6.3075,6.3057,6.3112,6.3049,6.3074,6.3075,6.3075,6.3222,6.3252,6.3352,6.3172,6.3174,6.3176,0,6.3137,6.3144,6.3211,6.3196,6.3204,6.3232,6.3239,6.3257,6.3252,6.3238,6.3243,6.3208,6.3242,6.3185,6.3232,6.319,6.3199,6.3192,6.3195,6.3194,6.313,6.3224,6.3384,6.3398,6.3197,6.3195,6.3194,0,6.3248,6.3275,6.3318,6.3319,6.3303,6.3324,6.3319,6.3311,6.332,6.3326,6.3332,6.3343,6.3348,6.3358,6.3326,6.3288,6.3377,6.3318,6.3366,6.3367,6.3385,6.3384,6.3547,6.3395,6.3394,6.3394,6.3394,0,6.3368,6.341,6.3367,6.3394,6.344,6.3402,6.3449,6.3437,6.3432,6.3455,6.341,6.3433,6.3391,6.341,6.3386,6.3428,6.3432,6.3421,6.3414,6.3424,6.3425,6.3427,6.3419,6.3398,6.3397,6.3396,6.3396,0,6.3498,6.3471,6.3515,6.3497,6.3493,6.3528,6.3513,6.3537,6.3519,6.3549,6.3554,6.3526,6.3546,6.3517,6.3534,6.3518,6.3576,6.3559,6.3577,6.3571,6.3621,6.3616,6.3789,6.381,6.3646,6.3648,6.3649,0,6.3575,6.3606,6.3593,6.3605,6.3602,6.3623,6.3632,6.3596,6.3608,6.3606,6.363,6.3647,6.3658,6.3693,6.3674,6.3687,6.3669,6.3729,6.3671,6.368,6.3669,6.3666,6.3669,6.3741,6.3743,6.3744,6.3745,0,6.3714,6.37,6.3714,6.3725,6.3737,6.3744,6.3747,6.3761,6.3723,6.3738,6.3759,6.3768,6.3786,6.3803,6.3811,6.3805,6.3769,6.3765,6.3776,6.3786,6.3794,6.3789,6.3608,6.376,6.3759,6.3757,6.3757,6.3756,6.3819,6.3844,6.3839,6.3857,6.3856,6.3861,6.3883,6.3868,6.3885,6.3896,6.3875,6.3901,6.3897,6.3905,6.3904,6.3924,6.3897,6.3915,6.3919,6.3923,6.393,6.3794,6.3925,6.3925,6.3924,6.3924,6.3924,0,6.3954,6.3948,6.3966,6.3972,6.3987,6.3954,6.3956,6.397,6.3994,6.3994,6.4006,6.403,6.4047,6.4031,6.4044,6.4064,6.4047,6.4068,6.4065,6.4065,6.3953,6.3941,6.4081,6.4081,6.4081,6.4081,6.4081,6.4081,6.4026,6.4067,6.4053,6.4094,6.4088,6.4114,6.4118,6.4122,6.4122,6.4151,6.4165,6.4155,6.4148,6.4161,6.4175,6.417,6.4176,6.4203,6.4192,6.4088,6.4072,6.4058,6.4046,6.4205,6.4205,6.4301,6.4302,6.4302]}]]